Location: Hartman Creek State Park
(44.3257°N, 89.2134°W)
Time: 23:49:13
(UTC-05:00)

Cosmos 2263 Rocket - Visible Passes

Search period start: 19 August 2014 00:00
Search period end: 29 August 2014 00:00
Orbit: 825 x 848 km, 71.0° (Epoch: 19 August)

Date Brightness Start Highest point End Pass type
(mag) Time Alt. Az. Time Alt. Az. Time Alt. Az.
19 Aug 5.6 05:06:01 10° NNE 05:06:42 10° NE 05:07:23 10° NE visible
19 Aug 2.1 21:38:14 10° SSW 21:43:50 71° ESE 21:49:28 10° NNE visible
19 Aug 4.5 23:24:05 10° W 23:28:21 22° NW 23:32:37 10° N visible
20 Aug 2.1 21:21:39 10° SSW 21:27:14 66° ESE 21:32:49 10° NNE visible
20 Aug 4.4 23:07:16 10° W 23:11:40 23° NW 23:16:05 10° N visible
21 Aug 2.2 21:05:06 10° S 21:10:38 61° ESE 21:16:11 10° NNE visible
21 Aug 4.4 22:50:27 10° WSW 22:54:59 24° NW 22:59:32 10° N visible
22 Aug 2.3 20:48:33 10° S 20:54:02 56° ESE 20:59:32 10° NNE visible
22 Aug 4.3 22:33:40 10° WSW 22:38:19 26° NW 22:42:59 10° N visible
23 Aug 2.3 20:32:00 10° S 20:37:27 51° ESE 20:42:53 10° NE visible
23 Aug 4.2 22:16:53 10° WSW 22:21:39 28° NW 22:26:26 10° N visible
24 Aug 4.2 05:23:50 10° N 05:28:53 34° NE 05:33:52 10° ESE visible
24 Aug 2.4 20:15:29 10° S 20:20:51 47° ESE 20:26:14 10° NE visible
24 Aug 4.2 22:00:07 10° WSW 22:05:00 29° NW 22:09:53 10° N visible
25 Aug 4.2 05:07:16 10° N 05:12:13 31° NE 05:17:08 10° ESE visible
25 Aug 4.1 21:43:21 10° WSW 21:48:20 31° NW 21:53:19 10° N visible
26 Aug 4.3 04:50:43 10° N 04:55:34 29° NE 05:00:22 10° ESE visible
26 Aug 4.0 21:26:36 10° WSW 21:31:41 34° NW 21:36:45 10° N visible
27 Aug 4.4 04:34:09 10° N 04:38:54 28° NE 04:43:36 10° ESE visible
27 Aug 3.9 21:09:52 10° WSW 21:15:02 36° NW 21:20:11 10° N visible
28 Aug 4.5 04:17:37 10° N 04:22:14 26° NE 04:26:49 10° ESE visible
28 Aug 3.8 20:53:09 10° SW 20:58:23 38° NW 21:03:37 10° NNE visible
